Temperature
17 18 17 17 17 16 16 16 16 16 16 16 16 16 16 16 16 16 15 15 15 15 15 15 15 15 15 15 15 15 15 15 15 15 15 15 14 14 14 14 15 15 15
18 18 17 17 16 16 16 16 16 16 16 15 15 15 15 15 15 15 15 15 15 15 15 15 15 15 15 15 15 15 15 15 15 15 14 14 14 14 14 14 14 14 14
17 17 17 17 16 16 16 16 16 15 15 15 15 15 15 15 15 15 15 15 15 15 15 15 15 15 15 15 15 15 15 14 14 14 14 14 14 14 14 14 14 14 14
17 17 17 16 16 16 16 16 15 15 15 15 15 15 15 15 15 15 15 15 15 15 15 15 15 15 15 15 15 14 14 14 14 14 14 14 14 14 14 14 14 14 14
16 16 17 16 16 16 16 15 15 15 15 15 15 15 15 15 15 15 15 15 15 15 15 15 15 15 15 15 14 14 14 14 14 14 14 14 14 14 14 14 14 14 14
16 16 16 16 16 16 15 15 15 15 15 15 15 15 15 15 15 15 15 15 15 15 15 15 15 15 14 14 14 14 14 14 13 13 13 14 14 14 14 14 14 14 14
15 15 16 16 15 15 15 15 15 15 15 15 15 15 15 15 15 15 15 15 15 14 14 15 14 14 14 14 14 14 14 13 13 13 13 13 14 14 14 14 14 14 13
15 15 15 15 15 15 15 15 15 14 14 15 14 14 14 14 14 14 14 14 14 14 14 14 14 14 14 14 14 14 13 13 13 13 13 13 13 13 13 13 13 13 13
15 15 15 15 15 15 15 14 14 14 14 14 14 14 14 14 14 14 14 14 14 14 14 14 14 14 14 14 14 13 13 13 13 13 13 13 13 13 13 13 13 13 13
14 15 14 14 14 14 14 14 14 14 14 14 14 14 14 14 14 14 14 14 14 14 14 14 14 13 13 13 13 13 13 13 13 13 13 13 13 13 13 13 13 12 12
14 14 14 14 14 14 14 14 14 14 14 14 14 14 13 13 13 13 14 14 14 13 13 13 13 13 13 13 13 13 13 13 13 13 13 13 13 13 13 12 12 12 12
14 14 14 14 13 13 13 13 13 13 13 13 13 13 13 13 13 13 13 13 13 13 13 13 13 13 13 13 13 12 12 12 12 12 12 12 12 12 12 12 12 12 12
13 13 13 13 13 13 13 13 13 13 13 13 13 13 13 13 13 13 13 13 13 13 13 13 12 12 12 12 12 12 12 12 12 12 12 12 12 12 12 12 12 12 12
13 13 13 13 13 13 13 13 13 13 13 13 13 12 12 12 12 12 13 13 13 12 12 12 12 12 12 12 12 12 12 12 12 12 12 12 12 12 11 11 11 11 11
12 12 13 13 12 12 12 12 12 12 12 12 12 12 12 12 12 12 12 12 12 12 12 12 12 12 12 12 12 11 11 11 11 11 11 11 11 11 11 11 11 11 11
12 12 12 12 12 12 12 12 12 12 12 12 12 12 12 12 12 12 12 12 12 12 12 12 12 12 12 12 12 11 11 11 11 11 11 11 11 11 11 11 11 11 11
11 12 12 12 12 12 12 12 12 12 12 12 12 12 12 12 12 12 12 12 11 11 12 12 12 11 11 11 11 11 11 11 11 11 11 11 11 11 11 11 11 11 11
11 11 11 11 11 12 12 12 12 12 12 12 12 11 11 11 12 11 11 11 11 11 11 11 11 11 11 11 11 11 11 11 10 10 10 10 10 10 11 10 10 10 10
10 11 11 11 11 11 11 11 12 12 12 11 11 11 11 11 11 11 11 11 11 11 11 11 11 11 11 11 11 11 10 10 10 10 10 10 10 10 10 10 10 10 10
10 10 10 10 11 11 11 11 11 11 11 11 11 11 11 11 11 11 11 11 11 11 11 11 11 11 11 10 10 10 10 10 10 10 10 10 10 10 10 10 10 10 10
9 9 10 10 10 10 11 11 11 11 11 11 11 11 11 11 11 11 11 11 11 11 11 11 10 10 10 10 10 10 10 10 10 10 10 10 9 10 10 10 10 10 10
8 8 9 9 10 10 10 10 10 11 10 11 10 10 10 10 10 10 11 11 11 11 10 10 10 10 10 10 10 10 9 9 9 9 9 9 9 9 9 9 9 9 9
7 7 8 8 9 9 9 10 10 10 10 10 10 10 10 10 10 10 10 10 10 10 10 10 10 10 10 10 10 10 9 9 9 9 9 9 9 9 9 9 9 9 9
6 6 7 7 8 8 9 9 9 9 9 10 10 10 10 10 10 10 10 10 10 10 10 10 10 10 10 10 9 9 10 10 9 9 8 8 8 9 9 9 9 9 9
5 5 6 6 7 7 8 8 8 9 9 9 9 9 9 9 9 10 10 10 10 10 10 10 10 10 9 9 9 9 9 9 9 9 8 8 8 8 8 8 9 9 9
4 5 5 6 6 7 7 7 8 8 8 9 9 9 9 9 9 9 9 9 9 9 10 10 10 9 9 9 9 9 9 9 9 9 8 8 8 8 8 8 8 8 8
Wind_Speed
11 15 19 18 17 16 16 15 14 14 14 13 13 13 14 14 14 14 13 13 14 15 15 15 15 16 17 17 18 18 18 18 18 19 19 18 18 17 17 17 17 17 18
15 18 19 18 17 17 16 15 14 13 14 13 13 13 13 14 14 13 13 13 14 15 14 15 16 16 16 17 17 17 16 16 16 17 18 17 18 18 18 18 18 16 18
16 18 19 18 18 17 16 15 14 14 14 13 13 13 13 13 13 13 13 13 14 14 14 15 15 15 16 16 16 15 14 12 12 13 14 15 16 17 18 18 18 18 18
16 18 17 19 18 17 16 15 14 14 13 13 13 13 13 13 13 13 13 13 14 14 14 14 15 15 15 15 14 13 11 10 9 9 12 14 14 16 17 17 17 17 17
15 17 18 19 17 17 16 15 14 14 13 13 13 13 13 13 13 13 13 13 14 14 14 14 14 14 14 13 12 11 9 8 9 12 15 15 14 15 16 16 17 17 17
13 16 19 19 18 17 16 15 14 14 13 13 13 13 13 13 12 12 13 13 13 14 14 14 13 13 13 12 11 9 8 8 9 13 15 15 14 15 16 16 16 16 16
12 14 18 18 18 17 16 15 14 13 13 13 13 13 12 12 12 13 13 13 13 13 13 13 13 12 12 11 10 8 8 8 10 14 15 15 15 15 15 15 15 15 15
12 13 16 17 17 17 16 15 14 13 13 13 13 12 12 12 12 13 13 13 12 12 12 12 12 12 11 10 9 8 7 7 10 14 15 15 15 15 15 15 14 14 14
12 12 13 14 15 16 16 15 15 13 13 13 13 12 12 13 12 12 12 12 12 12 12 12 12 11 11 10 8 7 8 9 11 12 13 13 14 14 13 13 13 13 13
10 10 11 12 13 13 14 15 15 14 13 13 12 12 13 13 12 12 11 12 11 11 12 12 11 11 10 9 7 6 7 9 12 13 13 13 13 13 12 12 12 12 12
9 9 9 10 10 12 13 14 14 14 13 13 12 13 12 11 11 11 11 11 12 12 12 12 12 11 10 8 6 5 6 8 12 12 12 13 12 12 11 11 10 10 11
7 8 8 9 9 10 11 12 12 12 12 11 11 11 10 9 10 10 12 12 12 12 11 11 11 11 9 7 5 4 5 10 11 11 11 12 11 11 10 10 10 10 10
7 6 6 7 9 8 7 9 9 9 10 10 11 10 9 9 9 10 10 10 11 11 9 10 9 8 7 7 6 5 7 9 11 11 11 12 11 10 10 9 9 8 8
6 6 6 5 7 8 7 7 7 7 6 7 10 11 8 6 6 8 7 8 8 8 8 7 6 7 7 7 7 7 8 9 11 11 11 11 10 9 9 9 8 7 7
4 5 5 4 5 6 6 6 6 6 6 7 9 9 9 6 5 6 6 7 7 7 7 5 5 6 6 6 6 8 8 9 10 11 10 10 9 8 7 7 7 7 7
3 4 4 5 4 5 4 4 5 6 7 7 7 9 9 8 6 5 5 5 5 6 7 6 5 5 5 5 5 7 8 9 10 10 10 9 8 7 7 6 6 7 7
2 3 3 5 4 4 4 4 5 5 6 5 6 8 9 8 7 6 5 4 5 6 6 6 5 6 5 5 4 5 6 7 8 9 9 8 8 7 7 6 7 6 6
1 1 3 4 4 4 4 4 4 5 6 5 7 7 8 8 8 6 5 4 6 6 5 4 3 4 4 4 3 3 4 5 6 8 7 7 7 6 6 6 6 6 6
1 1 1 2 3 3 3 4 4 4 5 6 7 7 7 8 8 6 5 5 7 5 3 3 3 4 4 4 3 3 3 3 4 6 6 6 6 6 6 5 5 4 4
1 1 1 2 3 3 2 3 3 3 3 5 5 6 7 8 9 8 5 6 7 4 3 3 4 4 4 4 4 3 2 2 3 4 4 5 6 6 5 4 4 3 3
2 2 1 1 2 3 2 2 3 3 3 3 4 6 7 7 8 7 5 5 5 4 4 4 4 5 4 4 3 2 1 1 2 2 3 4 4 5 4 3 3 3 3
4 3 2 1 1 2 3 3 2 3 3 3 3 4 6 7 7 7 6 5 5 4 4 4 4 3 3 4 3 3 2 0 1 1 2 2 2 4 3 3 2 2 3
3 3 3 2 0 1 1 2 2 2 2 2 3 3 4 6 7 6 7 6 5 5 5 5 5 5 4 3 2 3 3 3 1 1 2 2 2 2 2 2 2 2 3
3 3 3 3 2 1 1 3 4 3 3 3 4 4 4 5 6 6 6 6 5 4 5 5 5 4 5 4 2 1 1 3 3 1 1 2 3 2 2 2 2 2 3
4 3 3 3 3 2 0 2 3 3 2 2 3 5 5 4 5 6 6 6 5 4 5 5 5 5 4 4 4 2 1 1 2 3 2 2 1 2 2 2 3 3 3
5 4 3 3 3 3 1 1 2 2 2 3 4 5 5 3 4 5 6 5 5 5 5 5 5 6 4 4 3 3 3 3 3 2 3 3 2 2 2 2 2 3 4
Wind_Direction
128 138 145 140 137 134 132 129 126 125 123 122 119 116 112 110 106 104 102 102 105 103 100 97 95 92 89 87 85 83 83 83 82 79 76 74 74 75 76 75 74 72 74
132 138 145 142 139 136 134 131 129 128 126 123 121 118 117 115 112 109 106 106 106 104 101 99 96 94 92 91 89 88 88 90 90 87 80 74 74 75 74 75 76 76 75
129 137 143 141 139 136 135 134 131 130 129 127 124 122 119 117 117 113 111 109 108 106 104 100 97 95 94 93 92 90 90 92 95 93 87 82 78 77 77 76 77 77 76
130 135 142 142 140 137 136 135 134 133 131 130 128 125 123 119 117 116 114 112 111 108 105 102 98 97 97 96 94 91 88 86 85 83 85 83 81 80 79 78 78 77 76
130 134 138 140 139 138 138 138 137 136 133 131 130 128 126 122 119 115 113 113 113 110 108 106 103 102 102 99 96 90 80 72 70 79 82 80 82 84 81 79 78 77 75
131 133 137 140 139 138 137 137 138 138 134 132 130 130 128 125 122 118 114 114 115 115 113 110 108 106 105 100 94 86 73 65 68 79 81 83 85 86 83 80 78 77 75
132 131 139 140 140 141 139 138 137 138 137 135 133 131 129 128 125 121 118 116 117 118 117 115 112 109 106 101 94 82 66 65 79 84 82 84 88 86 84 82 79 78 77
131 132 140 142 142 142 141 140 139 136 137 138 137 134 131 128 125 125 123 121 119 121 121 119 116 112 109 103 94 79 60 58 83 89 85 85 88 86 85 84 80 79 78
129 132 138 145 144 142 141 140 139 137 135 136 138 135 133 129 127 127 127 126 125 125 124 122 118 116 112 105 96 80 61 57 78 87 89 88 90 88 87 84 81 81 81
131 138 143 147 147 145 142 143 140 137 136 135 133 135 135 132 131 130 128 128 128 129 128 124 122 118 112 108 101 84 66 66 80 80 87 92 91 89 87 85 83 84 83
138 143 148 150 148 147 147 146 141 141 140 138 139 140 138 137 136 134 130 129 128 129 131 131 129 123 117 113 107 95 74 80 84 83 86 94 92 89 86 84 85 87 86
150 151 154 154 149 147 151 148 148 149 149 149 149 147 144 141 137 132 131 131 132 133 135 138 138 135 130 125 119 107 83 90 90 87 91 95 92 90 88 86 88 89 88
155 153 152 155 151 149 145 149 153 155 156 158 153 147 142 137 134 127 129 134 138 141 141 144 142 149 143 134 129 113 92 92 94 93 94 96 92 90 87 85 89 91 89
154 155 149 155 152 152 149 152 150 149 152 153 155 154 148 137 133 136 138 149 151 150 144 148 154 151 137 135 131 116 103 100 99 98 96 96 92 90 88 85 88 92 94
154 157 153 149 152 151 151 155 150 147 148 153 154 158 152 140 140 141 140 147 151 152 150 155 147 135 123 121 117 112 107 109 109 106 103 98 93 91 91 90 90 94 94
174 168 159 154 154 149 150 152 146 148 152 150 150 157 154 144 139 139 135 138 144 147 151 147 135 122 110 106 99 103 107 109 110 113 114 107 101 96 92 90 93 95 93
175 172 170 163 155 153 152 155 144 148 148 142 148 155 147 142 142 137 133 133 139 143 142 134 122 115 109 102 96 92 97 103 114 118 121 119 112 103 97 93 92 90 89
145 166 184 177 164 162 159 152 144 147 143 142 145 149 148 146 146 138 134 136 141 136 128 123 123 116 111 112 106 96 95 101 111 116 122 122 119 114 109 105 98 90 83
140 165 175 167 161 160 151 142 139 136 138 140 140 142 149 149 151 141 134 138 139 132 133 142 134 128 125 122 113 101 89 94 105 111 109 115 118 120 122 121 115 108 93
83 96 143 152 154 143 134 132 133 133 135 130 136 147 154 154 155 146 142 145 141 135 143 143 140 131 132 130 112 91 79 96 98 110 119 117 122 124 121 125 131 138 126
52 43 82 129 145 140 144 153 160 164 157 146 147 157 158 157 158 149 149 147 145 150 157 152 142 135 137 131 112 96 43 64 104 122 126 120 119 125 125 127 142 150 158
27 21 15 73 162 162 173 179 181 166 165 161 159 157 161 160 161 160 151 152 148 149 154 156 145 140 151 154 139 137 140 121 303 157 134 136 137 136 141 153 155 157 152
26 18 0 357 12 166 159 146 131 116 130 151 164 167 167 168 166 163 158 152 155 157 166 167 159 152 161 175 166 152 154 185 172 199 190 169 159 145 154 162 173 169 176
7 13 6 1 4 62 119 155 160 168 174 189 179 175 176 176 167 160 158 155 159 161 165 170 164 160 158 172 191 194 144 134 137 156 241 207 176 170 178 182 187 187 177
4 13 9 358 5 6 169 169 177 184 179 167 170 172 178 179 170 163 163 161 163 164 164 165 159 166 169 173 173 169 151 100 121 147 191 211 208 212 189 182 184 183 178
5 11 11 7 358 354 329 201 175 185 183 170 176 182 182 178 174 168 168 167 164 163 165 166 166 172 177 170 166 164 158 157 176 167 177 185 198 227 199 178 178 180 187
Height
1505 1508 1510 1513 1516 1518 1521 1523 1525 1527 1529 1531 1533 1534 1536 1537 1539 1540 1541 1542 1543 1544 1545 1546 1547 1548 1548 1549 1550 1551 1551 1552 1553 1553 1554 1554 1555 1556 1556 1557 1557 1557 1558
1503 1507 1510 1513 1516 1519 1521 1524 1526 1528 1530 1532 1534 1535 1537 1538 1540 1541 1542 1543 1545 1546 1547 1548 1549 1549 1550 1551 1552 1553 1553 1554 1555 1556 1556 1557 1557 1558 1558 1559 1559 1560 1560
1503 1506 1510 1513 1516 1519 1522 1524 1526 1529 1531 1533 1535 1536 1538 1539 1541 1542 1544 1545 1546 1547 1548 1549 1550 1551 1552 1553 1554 1555 1556 1557 1557 1558 1558 1559 1559 1560 1560 1561 1561 1562 1562
1504 1507 1510 1513 1516 1519 1522 1524 1527 1529 1531 1533 1535 1537 1539 1540 1542 1543 1545 1546 1547 1548 1550 1551 1552 1553 1554 1555 1556 1557 1558 1559 1560 1560 1561 1561 1561 1562 1563 1563 1563 1563 1564
1505 1507 1510 1513 1517 1519 1522 1525 1527 1530 1532 1534 1536 1538 1539 1541 1543 1544 1546 1547 1548 1550 1551 1552 1553 1554 1555 1557 1558 1559 1560 1561 1562 1562 1563 1563 1563 1564 1564 1565 1565 1565 1565
1505 1508 1510 1514 1517 1520 1522 1525 1527 1530 1532 1534 1536 1538 1540 1542 1543 1545 1546 1548 1549 1551 1552 1553 1554 1556 1557 1558 1559 1561 1562 1563 1564 1564 1564 1565 1565 1566 1566 1566 1567 1567 1567
1506 1508 1511 1514 1517 1520 1522 1525 1527 1530 1532 1534 1536 1538 1540 1542 1544 1546 1547 1549 1550 1552 1553 1554 1556 1557 1558 1560 1561 1562 1563 1564 1565 1565 1566 1567 1567 1567 1568 1568 1568 1568 1569
1505 1508 1510 1514 1517 1520 1522 1525 1527 1530 1532 1534 1536 1538 1540 1542 1544 1546 1548 1549 1551 1552 1554 1555 1557 1558 1559 1561 1562 1563 1565 1565 1566 1567 1567 1568 1569 1569 1569 1570 1570 1570 1570
1506 1508 1510 1513 1516 1519 1522 1525 1527 1530 1532 1534 1536 1539 1541 1542 1544 1546 1548 1550 1551 1553 1554 1556 1557 1559 1560 1562 1563 1565 1566 1567 1567 1568 1568 1569 1570 1570 1571 1571 1571 1571 1571
1506 1507 1510 1513 1516 1519 1522 1524 1527 1529 1532 1534 1536 1538 1540 1542 1544 1546 1548 1550 1551 1553 1555 1556 1558 1560 1561 1563 1564 1565 1567 1567 1568 1569 1569 1570 1571 1571 1572 1572 1572 1572 1572
1505 1507 1509 1512 1515 1518 1521 1523 1526 1529 1531 1534 1536 1538 1540 1542 1544 1545 1548 1550 1551 1553 1555 1557 1559 1560 1562 1563 1565 1566 1567 1568 1568 1569 1570 1571 1571 1572 1572 1573 1573 1573 1573
1504 1506 1509 1511 1514 1517 1519 1522 1525 1528 1530 1532 1535 1537 1539 1541 1543 1545 1547 1549 1551 1553 1555 1557 1559 1561 1562 1563 1565 1566 1567 1568 1569 1569 1570 1571 1572 1572 1573 1573 1574 1574 1574
1502 1505 1508 1510 1513 1515 1518 1521 1524 1526 1529 1532 1534 1536 1538 1541 1542 1544 1546 1548 1551 1553 1555 1557 1558 1560 1562 1564 1565 1566 1567 1568 1569 1570 1571 1572 1572 1573 1573 1573 1574 1574 1574
1502 1504 1506 1509 1512 1514 1517 1520 1522 1525 1528 1530 1533 1535 1537 1539 1541 1543 1546 1548 1550 1552 1554 1556 1558 1560 1562 1564 1565 1566 1567 1568 1569 1570 1571 1572 1573 1573 1573 1574 1574 1574 1574
1500 1503 1505 1507 1510 1513 1515 1518 1521 1524 1526 1529 1531 1534 1536 1538 1540 1543 1545 1547 1549 1551 1553 1556 1558 1560 1562 1563 1565 1566 1567 1568 1569 1570 1571 1572 1572 1573 1573 1574 1574 1574 1574
1498 1501 1503 1505 1508 1511 1514 1516 1519 1522 1525 1527 1530 1532 1535 1537 1539 1541 1543 1546 1548 1551 1553 1555 1557 1559 1561 1563 1564 1565 1566 1567 1568 1569 1570 1571 1572 1573 1573 1574 1574 1574 1574
1497 1499 1501 1503 1506 1509 1511 1514 1517 1520 1523 1525 1528 1531 1533 1535 1538 1540 1542 1544 1547 1550 1552 1554 1556 1558 1560 1562 1563 1565 1566 1567 1568 1569 1570 1571 1571 1572 1573 1573 1574 1574 1574
1494 1496 1499 1501 1503 1506 1509 1512 1515 1518 1520 1523 1526 1528 1531 1533 1536 1538 1540 1543 1545 1548 1550 1552 1555 1557 1559 1560 1562 1564 1565 1566 1567 1568 1569 1570 1571 1571 1572 1573 1573 1573 1574
1492 1494 1496 1499 1501 1504 1506 1510 1512 1515 1518 1521 1523 1526 1529 1531 1534 1536 1539 1541 1543 1546 1548 1550 1553 1555 1557 1559 1561 1563 1564 1565 1567 1567 1568 1569 1570 1571 1571 1572 1572 1573 1573
1490 1492 1494 1496 1498 1501 1504 1507 1510 1512 1515 1518 1521 1524 1526 1529 1531 1534 1536 1538 1541 1543 1546 1548 1551 1553 1555 1557 1559 1561 1563 1564 1566 1566 1567 1568 1569 1570 1570 1571 1571 1572 1572
1488 1489 1491 1494 1496 1498 1501 1503 1506 1509 1512 1515 1518 1521 1523 1526 1529 1531 1533 1536 1538 1541 1543 1546 1548 1551 1553 1555 1558 1560 1562 1563 1564 1565 1566 1567 1568 1568 1569 1570 1570 1570 1571
1486 1487 1489 1491 1494 1496 1498 1501 1504 1506 1509 1512 1515 1518 1521 1523 1526 1528 1531 1533 1535 1538 1541 1543 1546 1548 1550 1553 1555 1557 1559 1562 1562 1563 1564 1565 1566 1566 1567 1568 1569 1569 1569
1484 1485 1487 1489 1491 1494 1496 1498 1501 1504 1506 1510 1512 1515 1518 1520 1523 1525 1528 1530 1533 1535 1538 1540 1543 1545 1547 1550 1552 1555 1556 1558 1560 1561 1562 1563 1564 1564 1565 1566 1567 1567 1567
1483 1484 1485 1487 1489 1491 1493 1495 1497 1499 1502 1505 1508 1511 1514 1517 1520 1522 1525 1527 1530 1532 1535 1537 1540 1542 1545 1547 1550 1552 1554 1555 1557 1558 1560 1560 1561 1562 1563 1564 1564 1565 1565
1482 1483 1484 1485 1486 1488 1491 1493 1495 1497 1499 1502 1505 1508 1511 1514 1516 1519 1522 1524 1527 1529 1532 1534 1537 1539 1541 1544 1546 1548 1550 1552 1553 1555 1556 1558 1559 1560 1560 1561 1562 1562 1563
1481 1481 1482 1483 1484 1486 1488 1490 1492 1494 1496 1499 1501 1504 1507 1510 1513 1515 1518 1521 1524 1526 1529 1531 1533 1536 1538 1541 1543 1545 1547 1548 1550 1552 1553 1554 1556 1557 1558 1559 1559 1560 1560